[[{"header":{"parameterUnit":"m.s-1","parameterCategory":1,"la1":30.2991,"la2":30.254,"lo1":-89.0895,"lo2":-89.0444,"dy":0.0017,"dx":0.0017,"nx":28,"ny":28,"refTime":"2025-08-29T21:00:00:Z","depth":0,"parameterNumber":2,"parameterNumberName":"U-component_of_WINDS"},"data":[0,0,0,0,0,0,0,0,0,0,0,0,0,0,0,0,0,0,0,0,0,0,0,0,0,0,0,0,0,0,0,0,0,0,0,0,0,0,0,0,0,0,0,0,0,0,0,0,0,0,0,0,0,0,0,0,0,0,0.549,0.5491,0,0.558,0.5581,0.5582,0.5566,0.5564,0.5562,0.5561,0.566,0.5664,0.5668,0,0,0,0,0,0,0,0,0,0,0,0,0,0.5308,0.5311,0.5489,0.5491,0.5492,0.558,0.5581,0.5583,0.5566,0.5564,0.5562,0.556,0.5658,0.5663,0.5668,0,0,0,0,0,0,0,0,0,0,0,0,0,0.5391,0.5312,0.5489,0.5494,0.5495,0.558,0.5581,0.5583,0.5566,0.5564,0.5561,0.5559,0.5657,0.5663,0.5669,0.5756,0,0,0.5688,0.5691,0,0,0,0,0,0,0,0,0.5387,0.5398,0.5492,0.5494,0.5495,0.5559,0.5553,0.5641,0.5567,0.554,0.5561,0.5558,0.5629,0.5637,0.566,0.5761,0.5765,0.5689,0.5692,0.5695,0.5697,0,0,0,0,0,0,0,0.5381,0.5394,0.5526,0.5494,0.5496,0.5493,0.5503,0.557,0.5597,0.5542,0.5541,0.5551,0.5629,0.5654,0.5662,0.5767,0.5688,0.5694,0.5698,0.57,0.5946,0.5948,0,0,0,0,0,0,0.5373,0.5389,0.5523,0.5528,0.5434,0.5499,0.5509,0.5541,0.5596,0.5602,0.5553,0.555,0.5644,0.5655,0.5665,0.5772,0.5695,0.5701,0.5704,0.5943,0.5946,0.5949,0,0,0,0,0,0,0.5369,0.5385,0.5519,0.5459,0.5475,0.5504,0.5541,0.5544,0.5569,0.5605,0.561,0.5573,0.5643,0.5656,0.5734,0.5775,0.5704,0.5709,0.594,0.5944,0.5948,0.5985,0,0,0,0,0,0,0.5364,0.5384,0.5416,0.5459,0.5479,0.5584,0.5543,0.5548,0.5579,0.5576,0.5625,0.5631,0.5642,0.5724,0.574,0.5782,0.5714,0.5936,0.5942,0.5947,0.598,0.599,0.5998,0,0,0,0,0,0.5357,0.5424,0.5417,0.5434,0.5519,0.5587,0.5598,0.5608,0.5582,0.5616,0.5639,0.5629,0.5768,0.5732,0.575,0.5795,0.5934,0.594,0.5946,0.5976,0.5988,0.5998,0,0,0,0,0,0,0.5386,0.5429,0.5423,0.5505,0.5542,0.5584,0.5626,0.562,0.5666,0.5662,0.5674,0.5685,0.5764,0.5787,0.5747,0.5883,0.5847,0.5857,0.5865,0.5876,0.5885,0.5878,0.5719,0,0,0,0,0,0.5401,0.5451,0.5487,0.5556,0.5574,0.5597,0.5627,0.5631,0.5671,0.5687,0.5716,0.5757,0.5809,0.5844,0.5894,0.5984,0.5995,0.6023,0.6032,0.6039,0.6048,0.6098,0.6111,0.597,0.597,0.597,0,0,0.5435,0.5465,0.5495,0.5562,0.5591,0.5644,0.5611,0.5667,0.5707,0.5696,0.577,0.5793,0.584,0.5923,0.5962,0.5945,0.609,0.6047,0.6053,0.6058,0.6106,0.6119,0.6131,0.5974,0.5973,0.5973,0,0,0.5522,0.5549,0.561,0.5639,0.5683,0.5698,0.5712,0.5755,0.5769,0.5843,0.5837,0.5885,0.5975,0.6009,0.6038,0.6138,0.6131,0.6154,0.6202,0.625,0.6261,0.6271,0.6308,0.6321,0.6163,0.6163,0.6163,0,0.5558,0.5635,0.5642,0.57,0.573,0.5721,0.5783,0.5812,0.5872,0.5894,0.5874,0.5987,0.6018,0.6109,0.6134,0.6157,0.6176,0.6149,0.6259,0.6269,0.6278,0.6314,0.6327,0.6165,0.6165,0.6165,0.6165,0,0.5678,0.5732,0.5776,0.5831,0.5867,0.5927,0.5944,0.598,0.5981,0.5998,0.6075,0.6111,0.6169,0.6191,0.6194,0.6284,0.6272,0.6255,0.622,0.6294,0.6328,0.6341,0.6169,0.6168,0.6167,0.6167,0,0,0.5787,0.5844,0.586,0.5886,0.5934,0.5976,0.6037,0.6091,0.6122,0.6163,0.6215,0.6292,0.6277,0.6309,0.6316,0.6358,0.6437,0.6337,0.6338,0.6355,0.6539,0.6552,0.6567,0.6432,0.6435,0.6437,0.6536,0,0.5879,0.5983,0.5991,0.6086,0.6136,0.6128,0.6181,0.6217,0.6235,0.6282,0.6303,0.6357,0.6332,0.6352,0.6394,0.6418,0.6474,0.6411,0.6482,0.6485,0.6471,0.6585,0.6598,0.669,0.6549,0.6551,0.6553,0,0.6,0.6043,0.6143,0.6184,0.6205,0.6252,0.6303,0.6348,0.6389,0.64,0.6436,0.6437,0.6501,0.6463,0.6552,0.6509,0.6539,0.6555,0.6559,0.6567,0.6524,0.6596,0.6719,0.6734,0.6573,0.6571,0.657,0,0.607,0.6153,0.6223,0.6245,0.6295,0.6328,0.6351,0.639,0.6422,0.6468,0.6489,0.6542,0.6572,0.6614,0.663,0.66,0.6719,0.6682,0.6731,0.673,0.6756,0.6755,0.6887,0.6774,0.6774,0.6774,0.6774,0,0.6173,0.6234,0.6255,0.6299,0.6368,0.6377,0.6446,0.6467,0.6502,0.6551,0.6547,0.6594,0.6611,0.6661,0.6674,0.6746,0.676,0.6771,0.6774,0.6772,0.677,0.6792,0.6786,0.6778,0.6777,0.6776,0.6775,0,0.6263,0.6279,0.6355,0.6396,0.6407,0.6457,0.6492,0.6535,0.6552,0.6614,0.6629,0.6656,0.6715,0.6734,0.6805,0.6814,0.6899,0.6896,0.6884,0.6885,0.6933,0.6929,0.7084,0.7106,0.6978,0.698,0.6981,0,0.6328,0.6374,0.6419,0.6451,0.6474,0.6525,0.6558,0.657,0.6604,0.6655,0.6692,0.675,0.6796,0.689,0.6918,0.6972,0.6971,0.7022,0.698,0.6976,0.6973,0.6971,0.6976,0.703,0.7032,0.7033,0.7034,0,0.6441,0.6447,0.6493,0.6543,0.6582,0.6622,0.6661,0.6687,0.6705,0.6745,0.6803,0.6839,0.6911,0.6968,0.7024,0.705,0.7046,0.7047,0.7061,0.706,0.7051,0.7057,0.6907,0.7043,0.7042,0.7042,0.7041,0.7041,0.6521,0.6562,0.66,0.6653,0.6683,0.6719,0.6761,0.6783,0.6831,0.6889,0.6894,0.6958,0.6999,0.7073,0.7101,0.7153,0.7139,0.7159,0.7165,0.717,0.7174,0.7042,0.7163,0.7163,0.7162,0.7162,0.7162,0,0.6635,0.6659,0.6707,0.676,0.6802,0.6792,0.6835,0.6871,0.6926,0.6964,0.7009,0.7077,0.7133,0.7165,0.7221,0.7256,0.7256,0.7271,0.7269,0.7275,0.7183,0.7165,0.727,0.727,0.727,0.727,0.727,0.727,0.6699,0.6769,0.6779,0.6864,0.6888,0.6949,0.6974,0.7009,0.7039,0.7114,0.716,0.718,0.7216,0.7275,0.7326,0.7334,0.7356,0.7372,0.7379,0.7293,0.7282,0.7271,0.7254,0.7377,0.7377,0.7467,0.7468,0.7469]},{"header":{"parameterUnit":"m.s-1","parameterCategory":1,"la1":30.2991,"la2":30.254,"lo1":-89.0895,"lo2":-89.0444,"dy":0.0017,"dx":0.0017,"nx":28,"ny":28,"refTime":"2025-08-29T21:00:00:Z","depth":0,"parameterNumber":3,"parameterNumberName":"V-component_of_WINDS"},"data":[0,0,0,0,0,0,0,0,0,0,0,0,0,0,0,0,0,0,0,0,0,0,0,0,0,0,0,0,0,0,0,0,0,0,0,0,0,0,0,0,0,0,0,0,0,0,0,0,0,0,0,0,0,0,0,0,0,0,0.7407,0.7408,0,0.7475,0.7476,0.7477,0.7468,0.7467,0.7466,0.7464,0.7534,0.7536,0.7539,0,0,0,0,0,0,0,0,0,0,0,0,0,0.7265,0.7268,0.7407,0.7408,0.7408,0.7475,0.7476,0.7477,0.7468,0.7467,0.7465,0.7464,0.7533,0.7536,0.754,0,0,0,0,0,0,0,0,0,0,0,0,0,0.7329,0.7268,0.7407,0.7412,0.7413,0.7475,0.7476,0.7477,0.7468,0.7467,0.7465,0.7463,0.7532,0.7536,0.754,0.76,0,0,0.7553,0.7555,0,0,0,0,0,0,0,0,0.7326,0.7334,0.741,0.7412,0.7413,0.7461,0.7451,0.7518,0.7469,0.7447,0.7464,0.7462,0.7511,0.7517,0.7533,0.7604,0.7607,0.7554,0.7556,0.7558,0.7559,0,0,0,0,0,0,0,0.7321,0.7331,0.7434,0.7411,0.7413,0.741,0.7417,0.7464,0.7488,0.7449,0.7449,0.7457,0.7511,0.7529,0.7535,0.7608,0.7553,0.7557,0.756,0.7562,0.7726,0.7728,0,0,0,0,0,0,0.7316,0.7328,0.7432,0.7436,0.7364,0.7414,0.7422,0.7447,0.7487,0.7492,0.7458,0.7456,0.7523,0.753,0.7537,0.7607,0.7558,0.7562,0.7565,0.7724,0.7726,0.7728,0,0,0,0,0,0,0.7313,0.7325,0.7429,0.7382,0.7395,0.7418,0.7447,0.745,0.7468,0.7494,0.7498,0.7472,0.7521,0.7531,0.7584,0.761,0.7564,0.7568,0.7722,0.7725,0.7727,0.775,0,0,0,0,0,0,0.7309,0.7324,0.7348,0.7382,0.7397,0.7475,0.7448,0.7452,0.7475,0.7473,0.7508,0.7512,0.7521,0.7577,0.7588,0.7615,0.7571,0.772,0.7723,0.7727,0.7747,0.7753,0.7758,0,0,0,0,0,0.7304,0.7353,0.7349,0.7362,0.7428,0.7477,0.7485,0.7494,0.7477,0.7501,0.7517,0.7511,0.7605,0.7583,0.7595,0.7623,0.7718,0.7722,0.7726,0.7744,0.7752,0.7758,0,0,0,0,0,0,0.7322,0.7357,0.7354,0.7416,0.7443,0.7475,0.7506,0.7503,0.7535,0.7532,0.7541,0.7549,0.7602,0.7618,0.7592,0.7681,0.7659,0.7666,0.7669,0.7676,0.7681,0.7676,0.7575,0,0,0,0,0,0.7333,0.737,0.7399,0.745,0.7464,0.7482,0.7504,0.7508,0.7537,0.7549,0.7569,0.7597,0.7632,0.7655,0.769,0.7749,0.7755,0.7774,0.778,0.7784,0.7789,0.7818,0.7826,0.7741,0.7741,0.7741,0,0,0.7356,0.738,0.7403,0.7455,0.7476,0.7513,0.7492,0.7534,0.756,0.7555,0.7605,0.7621,0.7652,0.7707,0.7733,0.7722,0.7814,0.7789,0.7793,0.7795,0.7823,0.7831,0.7838,0.7744,0.7744,0.7743,0,0,0.7417,0.744,0.7484,0.7505,0.7538,0.7549,0.7559,0.7591,0.7601,0.7652,0.7647,0.7679,0.7741,0.7762,0.7781,0.7846,0.784,0.7857,0.7885,0.7913,0.792,0.7926,0.7946,0.7953,0.7862,0.7862,0.7862,0,0.7442,0.7498,0.7506,0.7547,0.7568,0.7564,0.7607,0.7627,0.767,0.7683,0.7672,0.7746,0.7767,0.7825,0.7841,0.7857,0.7867,0.7852,0.7918,0.7924,0.793,0.7949,0.7957,0.7863,0.7863,0.7863,0.7863,0,0.7525,0.7563,0.7594,0.7634,0.7659,0.77,0.7713,0.7737,0.7739,0.7751,0.78,0.7825,0.7862,0.7876,0.7879,0.7934,0.7926,0.7916,0.7894,0.7939,0.7957,0.7965,0.7866,0.7865,0.7865,0.7864,0,0,0.76,0.7641,0.7652,0.7668,0.7703,0.7732,0.7772,0.7808,0.7827,0.7856,0.7887,0.7938,0.7928,0.7949,0.7954,0.7979,0.8024,0.7965,0.7966,0.7973,0.8082,0.8087,0.8096,0.8021,0.8022,0.8024,0.8078,0,0.7661,0.7732,0.7739,0.7802,0.7835,0.7831,0.7865,0.7889,0.79,0.793,0.7942,0.7977,0.7963,0.7975,0.7999,0.8013,0.8045,0.801,0.8048,0.8049,0.8038,0.8106,0.8113,0.8163,0.8086,0.8087,0.8088,0,0.7744,0.7773,0.7838,0.7864,0.7878,0.7909,0.7941,0.797,0.7995,0.8002,0.8024,0.8024,0.8063,0.804,0.8092,0.8067,0.8083,0.8092,0.8094,0.8096,0.807,0.8107,0.818,0.8186,0.81,0.8099,0.8098,0,0.7787,0.7843,0.7889,0.7903,0.7936,0.7957,0.7971,0.7995,0.8015,0.8042,0.8055,0.8087,0.8104,0.8128,0.8135,0.8119,0.8186,0.8164,0.819,0.8189,0.8203,0.8202,0.8276,0.8217,0.8217,0.8217,0.8217,0,0.7854,0.7894,0.7908,0.7936,0.7979,0.7986,0.8028,0.8041,0.8062,0.8091,0.809,0.8116,0.8126,0.8154,0.8161,0.82,0.8209,0.8213,0.8214,0.8212,0.8211,0.8222,0.8217,0.8219,0.8219,0.8218,0.8218,0,0.7911,0.7922,0.7971,0.7997,0.8004,0.8034,0.8055,0.8081,0.8091,0.8127,0.8136,0.8152,0.8184,0.8195,0.8234,0.8238,0.8284,0.8283,0.8275,0.8274,0.8298,0.8295,0.8381,0.8391,0.8327,0.8328,0.8328,0,0.7951,0.7981,0.8009,0.8028,0.8043,0.8074,0.8093,0.8101,0.8121,0.8151,0.8172,0.8204,0.823,0.8281,0.8295,0.8324,0.8323,0.8351,0.8327,0.8323,0.8319,0.8317,0.8318,0.8354,0.8355,0.8356,0.8356,0,0.8022,0.8025,0.8054,0.8083,0.8106,0.813,0.8153,0.8168,0.8179,0.8201,0.8234,0.8254,0.8292,0.8323,0.8352,0.8366,0.8362,0.8363,0.837,0.8368,0.836,0.8361,0.8284,0.8361,0.8361,0.836,0.836,0.836,0.8069,0.8094,0.8117,0.8147,0.8165,0.8186,0.821,0.8222,0.8249,0.8281,0.8284,0.8318,0.834,0.8378,0.8393,0.8419,0.8411,0.8422,0.8424,0.8426,0.8426,0.8358,0.8424,0.8424,0.8424,0.8424,0.8424,0,0.8137,0.815,0.8179,0.821,0.8233,0.8227,0.8251,0.8271,0.8301,0.8322,0.8346,0.8382,0.8411,0.8426,0.8454,0.8472,0.847,0.8479,0.8476,0.8479,0.8433,0.8423,0.8479,0.8479,0.8479,0.8479,0.8479,0.8479,0.8174,0.8215,0.822,0.8268,0.8282,0.8315,0.8328,0.8346,0.8362,0.8402,0.8426,0.8436,0.8453,0.8482,0.8507,0.8511,0.852,0.8529,0.8531,0.8488,0.8482,0.8477,0.8467,0.8532,0.8532,0.8574,0.8575,0.8575]}]]